Home > Weather > Coquitlam > Past weeks

Flag for Canada Past Weather in Coquitlam, British Columbia, Canada — Yesterday and Last 2 Weeks

Now
50 °F

Cool.


Feels Like: 50 °F
Forecast: 46 / 67 °F
Wind: 1 mph from Northeast

Location: P. Meadows Coastal Station

Current Time: May 30, 2016 at 1:56:40 AM

Latest Report: May 30, 2016 at 1:00 AM


Visibility: N/A

Pressure: 30.25 "Hg

Humidity: 89%

Dew Point: 47 °F

Location of CoquitlamLocation

Past Weather in Coquitlam — Graph

°F

Coquitlam Temperature Yesterday

Maximum temperature yesterday: 66 °F (at 3:00 PM)
Minimum temperature yesterday: 50 °F (at 3:00 AM)
Average temperature yesterday: 57 °F

High & Low Weather Summary for the Past Weeks

 TemperatureHumidityPressure
High71 °F (May 17, 5:00 PM)100% (May 28, 3:00 PM)30.29 "Hg (May 28, 3:00 PM)
Low47 °F (May 27, 3:00 AM)46% (May 20, 3:00 PM)29.73 "Hg (May 21, 4:00 AM)
Average57 °F75%30.01 "Hg
* Reported May 15 12:00 AM — May 30 12:00 AM, Coquitlam, Weather by CustomWeather, © 2016

Note: Actual official high and low records may vary slightly from our data, if they occured in-between our weather recording intervals... More about our weather records

Advertising

Coquitlam Weather History for the Previous 24 Hours

Scroll right to see more
 ConditionsComfort  
Time TempWeatherWind HumidityBarometerVisibility
12:00 AM
Mon, May 30
52 °FCool.1 mph87%30.24 "HgN/A
11:00 PM
Sun, May 29
53 °FCool.No wind84%30.23 "HgN/A
10:00 PM56 °FCool.3 mph68%30.21 "HgN/A
9:00 PM60 °FRefreshingly cool.1 mph58%30.19 "HgN/A
8:00 PM62 °FRefreshingly cool.2 mph53%30.18 "HgN/A
7:00 PM63 °FMild.5 mph53%30.16 "HgN/A
6:00 PM63 °FMild.7 mph53%30.16 "HgN/A
5:00 PM64 °FMild.6 mph51%30.15 "HgN/A
4:00 PM65 °FMild.8 mph47%30.14 "HgN/A
3:00 PM66 °FMild.8 mph46%30.13 "HgN/A
2:00 PM64 °FMild.9 mph49%30.12 "HgN/A
1:00 PM61 °FCool.8 mph64%30.12 "HgN/A
12:00 PM62 °FCool.6 mph62%30.11 "HgN/A
11:00 AM59 °FCool.3 mph70%30.10 "HgN/A
10:00 AM56 °FCool.3 mph75%30.10 "HgN/A
9:00 AM54 °FCool.3 mph89%30.08 "HgN/A
8:00 AM52 °FCool.1 mph91%30.07 "HgN/A
7:00 AM51 °FCool.No wind92%30.06 "HgN/A
6:00 AM51 °FCool.No wind93%30.04 "HgN/A
5:00 AM50 °FCool.1 mph92%30.03 "HgN/A
4:00 AM50 °FCool.No wind92%30.02 "HgN/A
3:00 AM50 °FCool.6 mph92%30.01 "HgN/A
2:00 AM51 °FCool.2 mph92%30.01 "HgN/A
1:00 AM54 °FCool.No wind90%30.00 "HgN/A
Weather by CustomWeather, © 2016

See weather overviewHow to use our weather pages